Вернуться в каталог

THORAD DELTA 1 DEB

АктивенSSO
NORAD 8144·DEBRIS·🇺🇸 United States

Запущен Nov 15, 1974 с Vandenberg Space Force Base

Loading…

Ближайшие Пролёты (ближайшие 24 часа)

TLE

СвежийSource: Space-Track

Эпоха: Sep 13, 2026, 20:01 UTC

1 08144U 74089N   26256.83443969  .00000020  00000-0  39006-3 0  9995
2 08144 101.7724 208.1683 0151898  36.1472 350.8996 12.53941761370463

Отслеживайте THORAD DELTA 1 DEB в реальном времени с AllMySat

Download on the App Store